Location: Borz?cin
(51.1714°N, 19.6030°E)
Time: 18:10:37
(UTC+00:00)

USA 229 DEB - Pass Details

Date: 19 May 2025
Orbit: 872 x 1339 km, 63.4° (Epoch: 17 June)

Event Time Altitude Azimuth Distance (km) Brightness Sun altitude
Exits shadow 21:33:21 26° 144° (SE) 1,785 4.3 -17.4°
Maximum altitude 21:35:12 30° 115° (ESE) 1,656 4.4 -17.5°
Drops below altitude 10° 21:40:51 10° 56° (ENE) 2,857 6.2 -17.8°
Sets 21:43:55 0° 47° (NE) 3,894 7.1 -17.9°
